Location: Unspecified
(0.0000°N, 0.0000°E)
Time: 16:51:44
(UTC+00:00)

S-56A Canister/Altair - All Passes

Search period start: 18 June 2019 00:00
Search period end: 28 June 2019 00:00
Orbit: 633 x 2499 km, 38.9° (Epoch: 17 June)

Date Brightness Start Highest point End Pass type
(mag) Time Alt. Az. Time Alt. Az. Time Alt. Az.
18 Jun - 00:41:10 10° NNW 00:45:57 36° NE 00:52:31 10° ESE night (unlit)
18 Jun - 02:44:21 10° W 02:50:14 37° SW 02:58:46 10° SSE visible
18 Jun - 04:56:20 10° SSW 04:57:44 10° SSW 04:59:11 10° SSW visible
18 Jun - 09:18:36 10° S 09:22:21 11° SSE 09:26:05 10° SE daylight
18 Jun - 11:19:21 10° SSW 11:32:17 34° SE 11:42:57 10° E daylight
18 Jun - 13:25:05 10° SW 13:39:21 85° NW 13:49:14 10° NE daylight
18 Jun - 15:36:14 10° W 15:44:13 21° NW 15:50:25 10° N daylight
19 Jun - 00:09:10 10° NNW 00:13:24 27° NE 00:18:50 10° ESE night (unlit)
19 Jun - 02:11:44 10° WNW 02:17:19 42° SW 02:25:30 10° SSE visible
19 Jun - 04:22:00 10° SW 04:24:17 11° SSW 04:26:46 10° S visible
19 Jun - 10:46:05 10° SSW 10:58:35 31° SE 11:09:23 10° E daylight
19 Jun - 12:51:17 10° SW 13:06:01 85° SE 13:16:34 10° NE daylight
19 Jun - 15:01:26 10° W 15:11:12 27° NW 15:18:33 10° N daylight
19 Jun - 23:37:21 10° N 23:40:52 20° NE 23:45:05 10° E night (unlit)
20 Jun - 01:39:11 10° WNW 01:44:29 49° SW 01:52:16 10° SE night (unlit)
20 Jun - 03:48:11 10° SW 03:50:57 12° SSW 03:54:04 10° S visible
20 Jun - 10:12:56 10° SSW 10:24:49 27° SE 10:35:35 10° E daylight
20 Jun - 12:17:35 10° SW 12:32:35 76° SE 12:43:46 10° NE daylight
20 Jun - 14:26:51 10° WSW 14:38:09 33° NW 14:46:29 10° NNE daylight
20 Jun - 23:05:49 10° NNE 23:08:19 14° NE 23:11:04 10° ENE night (unlit)
21 Jun - 01:06:41 10° WNW 01:11:45 59° SW 01:19:05 10° SE night (unlit)
21 Jun - 03:14:38 10° SW 03:17:43 13° SSW 03:21:16 10° S visible
21 Jun - 09:39:54 10° SSW 09:51:02 24° SSE 10:01:32 10° E daylight
21 Jun - 11:43:59 10° SW 11:59:04 68° SE 12:10:50 10° ENE daylight
21 Jun - 13:52:27 10° WSW 14:05:00 40° NW 14:14:14 10° NNE daylight
22 Jun - 00:34:15 10° NW 00:39:06 74° SW 00:45:55 10° SE night (unlit)
22 Jun - 02:41:18 10° SW 02:44:36 14° SSW 02:48:28 10° S visible
22 Jun - 09:07:02 10° S 09:17:12 21° SSE 09:27:10 10° ESE daylight
22 Jun - 11:10:30 10° SW 11:25:28 61° SE 11:37:45 10° ENE daylight
22 Jun - 13:18:11 10° WSW 13:31:46 48° NW 13:41:52 10° NNE daylight
23 Jun - 00:01:51 10° NW 00:06:31 87° NE 00:12:48 10° SE night (unlit)
23 Jun - 02:08:06 10° WSW 02:11:33 15° SSW 02:15:41 10° S night (unlit)
23 Jun - 08:34:22 10° S 08:43:21 18° SSE 08:52:27 10° ESE daylight
23 Jun - 10:37:07 10° SW 10:51:49 54° SE 11:04:31 10° ENE daylight
23 Jun - 12:44:05 10° WSW 12:58:27 56° NW 13:09:22 10° NNE daylight
23 Jun - 14:59:24 10° WNW 15:04:14 13° NW 15:08:31 10° NNW daylight
23 Jun - 23:29:31 10° NW 23:34:00 66° NE 23:39:42 10° SE night (unlit)
24 Jun - 01:35:01 10° WSW 01:38:36 17° SSW 01:42:56 10° S night (unlit)
24 Jun - 08:02:00 10° S 08:09:31 16° SSE 08:17:17 10° ESE daylight
24 Jun - 10:03:52 10° SSW 10:18:08 49° SE 10:31:06 10° ENE daylight
24 Jun - 12:10:07 10° WSW 12:25:01 64° NW 12:36:43 10° NE daylight
24 Jun - 14:23:28 10° WNW 14:30:59 17° NW 14:37:20 10° N daylight
24 Jun - 22:57:13 10° NNW 23:01:30 48° NE 23:06:38 10° ESE night (unlit)
25 Jun - 01:02:03 10° WSW 01:05:42 19° SSW 01:10:13 10° SSE night (unlit)
25 Jun - 07:30:06 10° S 07:35:40 13° SSE 07:41:28 10° SE daylight
25 Jun - 09:30:44 10° SSW 09:44:25 43° SE 09:57:30 10° ENE daylight
25 Jun - 11:36:18 10° SW 11:51:31 73° NW 12:03:57 10° NE daylight
25 Jun - 13:48:10 10° W 13:57:41 22° NW 14:05:33 10° N daylight
25 Jun - 22:24:59 10° NNW 22:29:02 35° NE 22:33:33 10° ESE night (unlit)
26 Jun - 00:29:09 10° W 00:32:55 22° SSW 00:37:32 10° SSE night (unlit)
26 Jun - 06:59:45 10° SSE 07:01:49 10° SSE 07:03:58 10° SE daylight
26 Jun - 08:57:44 10° SSW 09:10:42 38° SE 09:23:42 10° ENE daylight
26 Jun - 11:02:38 10° SW 11:17:57 82° NW 11:31:02 10° NE daylight
26 Jun - 13:13:14 10° W 13:24:20 26° NW 13:33:28 10° N daylight
26 Jun - 21:52:47 10° NNW 21:56:32 26° NE 22:00:26 10° E night (unlit)
26 Jun - 23:56:20 10° W 00:00:12 26° SW 00:04:54 10° SSE night (unlit)
27 Jun - 08:24:52 10° SSW 08:37:00 33° SE 08:49:40 10° E daylight
27 Jun - 10:29:06 10° SW 10:44:19 89° SE 10:58:00 10° NE daylight
27 Jun - 12:38:35 10° W 12:50:54 32° NW 13:01:09 10° NNE daylight
27 Jun - 21:20:38 10° N 21:23:58 20° NE 21:27:17 10° E visible
27 Jun - 23:23:33 10° WNW 23:27:33 32° SW 23:32:16 10° SSE night (unlit)
